Flag for Ireland Weather past 2 weeks in Cork, Ireland

Now
58 °F

Low clouds.


Feels Like: 57 °F
Forecast: 57 / 67 °F
Wind: 5 mph from South

Location: Cork Airport

Current Time: Jul 3, 2015 at 12:50:41 AM

Latest Report: Jul 3, 2015 at 12:00 AM


Visibility: 13 mi

Pressure: 30.15 "Hg

Humidity: 100%

Dew point: 58 °F

Location of CorkLocation

Historic Weather in Cork — Graph

°F

Cork temperature yesterday

Maximum temperature yesterday: 63 °F (at 3:00 PM)
Minimum temperature yesterday: 49 °F (at 5:00 AM)
Average temperature yesterday: 57 °F

Past Weeks' High & Low Weather Summary

 TemperatureHumidityPressure
High69 °F (Jun 19, 4:00 PM)100% (Jun 20, 7:00 AM)30.32 "Hg (Jun 20, 7:00 AM)
Low47 °F (Jun 19, 5:00 AM)51% (Jun 18, 5:00 PM)29.80 "Hg (Jul 1, 3:00 PM)
Average58 °F86%30.06 "Hg
* Reported Jun 17 11:00 PM — Jul 2 11:00 PM, Cork, Weather by CustomWeather, © 2015

Note: Actual official high and low records may vary slightly from our data, if they occured in-between our weather recording intervals... More about our weather records

Advertising

Cork weather history for previous 24 hours

 ConditionsComfort  
Time TempWeatherWind HumidityBarometerVisibility
11:00 PM
Thu, Jul 2
58 °FLow clouds.5 mph100%30.15 "Hg12 mi
10:00 PM57 °FPassing clouds.3 mph99%30.14 "Hg19 mi
9:00 PM59 °FLow clouds.6 mph96%30.12 "Hg31 mi
8:00 PM61 °FPartly sunny.7 mph88%30.11 "Hg37 mi
7:00 PM62 °FScattered clouds.7 mph81%30.09 "Hg37 mi
6:00 PM62 °FPartly sunny.7 mph87%30.09 "Hg37 mi
5:00 PM63 °FPartly sunny.8 mph79%30.07 "Hg37 mi
4:00 PM62 °FPartly sunny.7 mph78%30.06 "Hg37 mi
3:00 PM63 °FPartly sunny.8 mph80%30.05 "Hg31 mi
2:00 PM62 °FOvercast.7 mph80%30.04 "Hg19 mi
1:00 PM61 °FOvercast.6 mph78%30.03 "Hg31 mi
12:00 PM61 °FOvercast.6 mph80%30.02 "Hg31 mi
11:00 AM62 °FPartly sunny.6 mph85%30.01 "Hg31 mi
10:00 AM59 °FOvercast.6 mph85%30.01 "Hg25 mi
9:00 AM58 °FPartly sunny.5 mph93%30.01 "Hg25 mi
8:00 AM56 °FScattered clouds.2 mph100%29.99 "Hg19 mi
7:00 AM53 °FFog.2 mph100%30.00 "Hg12 mi
6:00 AM49 °FFog.2 mph100%29.98 "Hg1 mi
5:00 AM49 °FFog.3 mph100%29.96 "Hg12 mi
4:00 AM51 °FPassing clouds.3 mph100%29.95 "Hg12 mi
3:00 AM53 °FPassing clouds.6 mph100%29.93 "Hg12 mi
2:00 AM51 °FPassing clouds.5 mph99%29.92 "Hg16 mi
1:00 AM53 °FPassing clouds.6 mph98%29.90 "Hg16 mi
12:00 AM55 °FPassing clouds.6 mph98%29.89 "Hg19 mi
Weather by CustomWeather, © 2015

See weather overviewHow to use our weather pages